Regional Weather Roundup
Issued by NWS Little Rock, AR

Home | Current Version | Previous Version | Graphics & Text | Print | Product List | Glossary On
Versions: 1 2 3 4 5 6 7 8 9 10 11 12 13 14 15 16 17 18 19 20 21 22 23 24 25 26 27
000
ASUS44 KLZK 231105
RWRLZK

WEATHER ROUNDUP FOR ARKANSAS
NATIONAL WEATHER SERVICE LITTLE ROCK AR
600 AM CDT THU OCT 23 2014

NOTE: "FAIR" INDICATES FEW OR NO CLOUDS BELOW 12,000 FEET WITH NO
SIGNIFICANT WEATHER AND/OR OBSTRUCTIONS TO VISIBILITY.

ARZ001-003-010-029-231200-
NORTHWEST ARKANSAS

CITY           SKY/WX    TMP DP  RH WIND       PRES   REMARKS
FAYETTEVILLE   CLOUDY    52  50  93 CALM      30.16S
FORT SMITH     CLOUDY    55  48  77 E6        30.16S
HARRISON       CLOUDY    48  47  96 SE8       30.17S
BENTONVILLE    CLOUDY    55  48  76 E3        30.15R
ROGERS         CLOUDY    54  49  83 E5        30.16S
SILOAM SPGS    CLOUDY    55  46  71 SW3       30.17R
HIGHFILL       CLOUDY    55  51  86 S5        30.15S
SPRINGDALE     CLOUDY    54  48  82 SE7       30.17
$$

ARZ004-005-016-231200-
NORTH CENTRAL ARKANSAS

CITY           SKY/WX    TMP DP  RH WIND       PRES   REMARKS
BATESVILLE     MOCLDY    43  39  87 CALM      30.20S
FLIPPIN        CLOUDY    45  39  81 CALM      30.20S
MTN HOME       CLOUDY    46  44  93 E3        30.19R
$$

ARZ040-041-231200-
WEST CENTRAL ARKANSAS

CITY           SKY/WX    TMP DP  RH WIND       PRES   REMARKS
MENA           CLOUDY    54  54 100 CALM      30.18R
MOUNT IDA      CLOUDY    50  49  96 CALM      30.15F
$$

ARZ009-017-025-026-028-231200-
NORTHEAST ARKANSAS

CITY           SKY/WX    TMP DP  RH WIND       PRES   REMARKS
CORNING        FAIR      41  41 100 N5        30.22R
JONESBORO      PTCLDY    45  43  93 CALM      30.20S
NEWPORT        MOCLDY    43  42  96 NW6       30.22R
WALNUT RIDGE   PTCLDY    43  37  81 N6        30.20R
BLYTHEVILLE    CLEAR     41  39  93 CALM      30.20R
$$

ARZ022-023-033-042-044-231200-
CENTRAL ARKANSAS

CITY           SKY/WX    TMP DP  RH WIND       PRES   REMARKS
LITTLE ROCK    PTCLDY    48  42  80 NE5       30.19S
N LITTLE ROCK    N/A     47  45  90 E5        30.19S
JACKSONVILLE   PTCLDY    41  39  93 CALM      30.19R
SEARCY         PTCLDY    43  42  97 CALM      30.21R
HOT SPRINGS    CLOUDY    49  46  90 NW5       30.19R
RUSSELLVILLE   CLOUDY    49  47  93 CALM      30.19S
$$

ARZ036-231200-
EAST ARKANSAS

CITY           SKY/WX    TMP DP  RH WIND       PRES   REMARKS
WEST MEMPHIS   PTCLDY    43  43 100 N3        30.17F
$$

ARZ050-053-066-070-073-231200-
SOUTHWEST ARKANSAS

CITY           SKY/WX    TMP DP  RH WIND       PRES   REMARKS
ARKADELPHIA    FAIR      51  49  93 CALM      30.18R
CAMDEN         CLOUDY    46  45  93 CALM      30.16S
TEXARKANA      CLOUDY    53  50  89 CALM      30.15S
EL DORADO      CLOUDY    48  46  93 NE7       30.15S
DE QUEEN       CLOUDY    53  51  93 CALM      30.15R
$$

ARZ056-057-069-231200-
SOUTHEAST ARKANSAS

CITY           SKY/WX    TMP DP  RH WIND       PRES   REMARKS
PINE BLUFF     CLOUDY    46  44  93 CALM      30.18R
STUTTGART      MOCLDY    45  41  87 N3        30.20R
MONTICELLO     CLOUDY    46  44  93 CALM      30.17R

$$





USA.gov is the U.S. government's official web portal to all federal, state and local government web resources and services.